Change the Weather History Date:

Sunday, February 9, 2014

  Actual Average Record
Temperature  
Mean Temperature 40 °F 38 °F  
Max Temperature 46 °F 48 °F 72 °F (2001)
Min Temperature 34 °F 29 °F 8 °F (1933)
Degree Days  
Heating Degree Days 25 27  
Month to date heating degree days 226 245  
Since 1 July heating degree days 2864 2737  
Cooling Degree Days 0 0  
Month to date cooling degree days 0 0  
Year to date cooling degree days 0 0  
Moisture  
Dew Point 27 °F    
Average Humidity 61    
Maximum Humidity 70    
Minimum Humidity 52    
Precipitation  
Precipitation T in 0.11 in 1.50 in (1931)
Month to date precipitation 2.08 0.93  
Year to date precipitation 3.89 3.85  
Snow  
Snow 0.00 in - - ()
Month to date snowfall T  
Since 1 July snowfall 3.4  
Snow Depth 0.00 in    
Sea Level Pressure  
Sea Level Pressure 30.09 in    
Wind  
Wind Speed 7 mph (SW)    
Max Wind Speed 23 mph    
Max Gust Speed 31 mph    
Visibility 10 miles    
Events      
T = Trace of Precipitation, MM = Missing Value Source: NWS Daily Summary

Daily Weather History Graph

Daily Weather History Graph

Search for Another Location

Airport or City:

Trip Planner

Search our weather history database for the weather conditions in past years. The results will help you decide how hot, cold, wet, or windy it might be!

Date:

Astronomy

Feb. 09, 2014 Rise Set
Actual Time 7:15 AM EST 5:53 PM EST
Civil Twilight 6:48 AM EST 6:20 PM EST
Nautical Twilight 6:17 AM EST 6:51 PM EST
Astronomical Twilight 5:47 AM EST 7:21 PM EST
Moon 1:34 PM EST (2/9) 3:17 AM EST (2/9)
Length of Visible Light 11h 31m
Length of Day
10h 37m
Waxing Gibbous, 77% of the Moon is Illuminated
Feb 9
Waxing Gibbous
Feb 14
Full
Feb 22
Last Quarter
Mar 1
New
Mar 8
First Quarter

Hourly Weather History & Observations

Time (EST) Temp. Windchill Dew Point Humidity Pressure Visibility Wind Dir Wind Speed Gust Speed Precip Events Conditions
12:54 AM 36.0 °F 33.3 °F 23.0 °F 59% 30.18 in 10.0 mi SSE 3.5 mph - N/A   Overcast
1:54 AM 37.0 °F - 21.9 °F 54% 30.16 in 10.0 mi Calm Calm - N/A   Overcast
2:54 AM 36.0 °F - 23.0 °F 59% 30.16 in 10.0 mi Calm Calm - N/A   Overcast
3:54 AM 36.0 °F 33.3 °F 24.1 °F 62% 30.13 in 10.0 mi ENE 3.5 mph - N/A   Overcast
4:54 AM 35.1 °F 32.2 °F 24.1 °F 64% 30.12 in 10.0 mi SSW 3.5 mph - N/A   Overcast
5:54 AM 35.1 °F 29.3 °F 25.0 °F 67% 30.14 in 10.0 mi NNW 6.9 mph - N/A   Overcast
6:54 AM 36.0 °F - 25.0 °F 64% 30.14 in 10.0 mi Calm Calm - N/A   Overcast
7:54 AM 36.0 °F 31.1 °F 26.1 °F 67% 30.13 in 10.0 mi ESE 5.8 mph - N/A   Overcast
8:54 AM 37.0 °F 33.3 °F 25.0 °F 62% 30.13 in 10.0 mi SE 4.6 mph - N/A   Overcast
9:54 AM 37.9 °F 34.4 °F 25.0 °F 60% 30.12 in 10.0 mi SE 4.6 mph - N/A   Mostly Cloudy
10:54 AM 37.9 °F 33.5 °F 26.1 °F 62% 30.11 in 10.0 mi ESE 5.8 mph - N/A   Overcast
11:54 AM 39.9 °F 36.7 °F 27.0 °F 60% 30.07 in 10.0 mi East 4.6 mph - N/A   Overcast
12:54 PM 41.0 °F 37.1 °F 28.0 °F 60% 30.05 in 10.0 mi SE 5.8 mph - N/A   Overcast
1:54 PM 43.0 °F 40.3 °F 28.9 °F 58% 30.01 in 10.0 mi SSE 4.6 mph - N/A   Overcast
2:54 PM 44.1 °F 40.8 °F 30.9 °F 60% 29.99 in 10.0 mi SW 5.8 mph - N/A   Overcast
3:54 PM 46.0 °F 40.2 °F 33.1 °F 61% 29.99 in 10.0 mi WSW 12.7 mph - N/A   Overcast
4:54 PM 45.0 °F 38.9 °F 33.1 °F 63% 29.99 in 10.0 mi West 12.7 mph 19.6 mph N/A   Overcast
5:54 PM 44.1 °F 39.0 °F 34.0 °F 68% 30.00 in 10.0 mi WSW 9.2 mph - N/A   Mostly Cloudy
6:54 PM 43.0 °F 37.2 °F 33.1 °F 68% 30.04 in 10.0 mi WNW 10.4 mph 19.6 mph 0.00 in   Overcast
7:54 PM 43.0 °F 34.5 °F 30.9 °F 62% 30.07 in 10.0 mi West 19.6 mph 24.2 mph N/A   Overcast
8:54 PM 42.1 °F 33.6 °F 28.0 °F 58% 30.09 in 10.0 mi WNW 18.4 mph 25.3 mph N/A   Mostly Cloudy
9:54 PM 41.0 °F 36.4 °F 27.0 °F 57% 30.08 in 10.0 mi NW 6.9 mph - N/A   Overcast
10:54 PM 39.0 °F 31.0 °F 26.1 °F 60% 30.08 in 10.0 mi WNW 13.8 mph 18.4 mph N/A   Partly Cloudy
11:54 PM 37.0 °F 31.0 °F 24.1 °F 59% 30.08 in 10.0 mi WNW 8.1 mph - N/A   Scattered Clouds